[[{"header":{"parameterUnit":"m.s-1","parameterCategory":1,"la1":30.2991,"la2":30.254,"lo1":-89.0895,"lo2":-89.0444,"dy":0.0017,"dx":0.0017,"nx":28,"ny":28,"refTime":"2026-01-09T03:00:00:Z","depth":0,"parameterNumber":2,"parameterNumberName":"U-component_of_WINDS"},"data":[0,0,0,0,0,0,0,0,0,0,0,0,0,0,0,0,0,0,0,0,0,0,0,0,0,0,0,0,0,0,0,0,0,0,0,0,0,0,0,0,0,0,0,0,0,0,0,0,0,0,0,0,0,0,0,0,0,0,-2.4538,-2.4539,0,-2.4629,-2.463,-2.4631,-2.4643,-2.4642,-2.4641,-2.4641,-2.4735,-2.4739,-2.4742,0,0,0,0,0,0,0,0,0,0,0,0,0,-2.4377,-2.438,-2.4538,-2.4539,-2.454,-2.4629,-2.463,-2.4631,-2.4643,-2.4642,-2.4641,-2.464,-2.4734,-2.4738,-2.4742,0,0,0,0,0,0,0,0,0,0,0,0,0,-2.4455,-2.4381,-2.4538,-2.4557,-2.4559,-2.4628,-2.463,-2.4631,-2.4644,-2.4642,-2.4641,-2.464,-2.4733,-2.4738,-2.4743,-2.4799,0,0,-2.4758,-2.476,0,0,0,0,0,0,0,0,-2.4451,-2.4461,-2.4553,-2.4556,-2.4559,-2.4623,-2.4608,-2.4688,-2.4644,-2.4612,-2.4641,-2.4639,-2.4699,-2.4707,-2.4727,-2.4804,-2.4808,-2.4758,-2.4762,-2.4764,-2.4765,0,0,0,0,0,0,0,-2.4445,-2.4457,-2.4574,-2.4554,-2.4558,-2.4562,-2.4571,-2.4623,-2.4662,-2.4614,-2.4615,-2.4626,-2.4701,-2.4722,-2.4729,-2.4809,-2.4758,-2.4763,-2.4766,-2.4768,-2.4937,-2.4938,0,0,0,0,0,0,-2.4436,-2.4453,-2.4571,-2.4577,-2.45,-2.4565,-2.4576,-2.4604,-2.4661,-2.4669,-2.4627,-2.4626,-2.4714,-2.4723,-2.4733,-2.4802,-2.4764,-2.4768,-2.4771,-2.4936,-2.4937,-2.4939,0,0,0,0,0,0,-2.4433,-2.4446,-2.4567,-2.4515,-2.4531,-2.457,-2.46,-2.4606,-2.4628,-2.4671,-2.4678,-2.4642,-2.4714,-2.4726,-2.4782,-2.4805,-2.4771,-2.4775,-2.4934,-2.4936,-2.4938,-2.4941,0,0,0,0,0,0,-2.4428,-2.4445,-2.4466,-2.4515,-2.4533,-2.4615,-2.4602,-2.4609,-2.4636,-2.4636,-2.4686,-2.4693,-2.4713,-2.4775,-2.4787,-2.4812,-2.4779,-2.4932,-2.4935,-2.4937,-2.4939,-2.4943,-2.4947,0,0,0,0,0,-2.4422,-2.4464,-2.4467,-2.4482,-2.4561,-2.4616,-2.4627,-2.4648,-2.4638,-2.466,-2.4688,-2.4692,-2.4801,-2.4781,-2.4795,-2.4821,-2.493,-2.4934,-2.4937,-2.4937,-2.4942,-2.4947,0,0,0,0,0,0,-2.4417,-2.4471,-2.4475,-2.4534,-2.457,-2.4618,-2.4646,-2.4653,-2.4694,-2.4692,-2.4718,-2.4729,-2.4785,-2.4809,-2.4785,-2.4879,-2.4865,-2.4871,-2.486,-2.4865,-2.4869,-2.4861,-2.4783,0,0,0,0,0,-2.4423,-2.4463,-2.4508,-2.4556,-2.4574,-2.4607,-2.4632,-2.4646,-2.4685,-2.47,-2.4732,-2.477,-2.4813,-2.4841,-2.4883,-2.4943,-2.4954,-2.4968,-2.4972,-2.4975,-2.498,-2.5013,-2.5019,-2.495,-2.495,-2.495,0,0,-2.4436,-2.447,-2.4494,-2.4556,-2.4586,-2.4627,-2.462,-2.4664,-2.4695,-2.4707,-2.4762,-2.4787,-2.4832,-2.489,-2.4918,-2.4912,-2.5002,-2.4979,-2.4981,-2.4984,-2.5017,-2.5023,-2.5029,-2.4952,-2.4952,-2.4952,0,0,-2.4479,-2.4509,-2.4552,-2.4582,-2.4627,-2.4649,-2.4659,-2.4706,-2.4723,-2.4778,-2.4788,-2.4826,-2.49,-2.4931,-2.4956,-2.5012,-2.5017,-2.5025,-2.5044,-2.5076,-2.5082,-2.5087,-2.5106,-2.5112,-2.503,-2.503,-2.503,0,-2.4488,-2.455,-2.4573,-2.4616,-2.4643,-2.4656,-2.47,-2.4728,-2.4785,-2.4804,-2.4797,-2.4889,-2.492,-2.4986,-2.4999,-2.502,-2.5032,-2.5019,-2.5079,-2.5084,-2.5089,-2.5108,-2.5115,-2.5031,-2.5031,-2.5031,-2.5031,0,-2.456,-2.4602,-2.4632,-2.4685,-2.4716,-2.4759,-2.4789,-2.4817,-2.4829,-2.4852,-2.4909,-2.4946,-2.4996,-2.5013,-2.5025,-2.5081,-2.5076,-2.5074,-2.506,-2.5096,-2.5114,-2.5121,-2.5032,-2.5031,-2.5031,-2.5031,0,0,-2.4601,-2.4667,-2.4677,-2.4701,-2.4752,-2.4786,-2.483,-2.4878,-2.4902,-2.4941,-2.4979,-2.5041,-2.504,-2.5069,-2.5084,-2.5113,-2.5154,-2.5108,-2.5109,-2.5114,-2.5216,-2.5216,-2.5224,-2.5158,-2.516,-2.5161,-2.5212,0,-2.4649,-2.4727,-2.4749,-2.4815,-2.4855,-2.4868,-2.4907,-2.4943,-2.4966,-2.5003,-2.5029,-2.5072,-2.5068,-2.5085,-2.5114,-2.5142,-2.5174,-2.5139,-2.5193,-2.5195,-2.5179,-2.5233,-2.5233,-2.528,-2.5219,-2.5221,-2.5222,0,-2.4715,-2.4754,-2.4824,-2.487,-2.4887,-2.4921,-2.4967,-2.5003,-2.5044,-2.5059,-2.5091,-2.5105,-2.5152,-2.5137,-2.5203,-2.5179,-2.5202,-2.522,-2.5222,-2.5227,-2.5209,-2.5238,-2.5296,-2.5302,-2.5233,-2.5232,-2.5231,0,-2.4736,-2.4807,-2.4858,-2.4878,-2.4933,-2.4957,-2.4981,-2.5021,-2.5048,-2.5089,-2.5107,-2.5153,-2.5178,-2.5213,-2.5239,-2.5226,-2.5302,-2.529,-2.5315,-2.5315,-2.5329,-2.5328,-2.539,-2.5347,-2.5347,-2.5347,-2.5347,0,-2.4786,-2.4828,-2.4868,-2.4899,-2.4946,-2.4972,-2.5019,-2.5044,-2.5079,-2.5116,-2.5131,-2.5165,-2.5198,-2.5237,-2.5258,-2.5308,-2.532,-2.5333,-2.5338,-2.5331,-2.5329,-2.5345,-2.5342,-2.5349,-2.5349,-2.5348,-2.5348,0,-2.4817,-2.4846,-2.4902,-2.4949,-2.4962,-2.4995,-2.5036,-2.5067,-2.5091,-2.5137,-2.5149,-2.5187,-2.5233,-2.5263,-2.5323,-2.5336,-2.5392,-2.5396,-2.5377,-2.5379,-2.5402,-2.5399,-2.5476,-2.5487,-2.5438,-2.5439,-2.5439,0,-2.4847,-2.4879,-2.493,-2.4955,-2.4979,-2.502,-2.5048,-2.5075,-2.5103,-2.5153,-2.5178,-2.5225,-2.5264,-2.5338,-2.5371,-2.5417,-2.5422,-2.5446,-2.5428,-2.542,-2.542,-2.5417,-2.542,-2.5448,-2.5448,-2.5448,-2.5449,0,-2.4895,-2.4908,-2.4947,-2.4991,-2.5024,-2.506,-2.5096,-2.5117,-2.515,-2.5182,-2.5229,-2.5259,-2.5319,-2.5366,-2.5415,-2.5441,-2.545,-2.5454,-2.5462,-2.5454,-2.5441,-2.5447,-2.5383,-2.5452,-2.5451,-2.5451,-2.5451,-2.5451,-2.4925,-2.4955,-2.4995,-2.5038,-2.5068,-2.5102,-2.5133,-2.5161,-2.52,-2.5251,-2.5265,-2.5314,-2.5355,-2.5421,-2.5448,-2.5488,-2.5485,-2.5497,-2.5499,-2.5501,-2.5501,-2.5436,-2.5497,-2.5497,-2.5497,-2.5497,-2.5497,0,-2.4974,-2.5,-2.504,-2.5089,-2.5124,-2.513,-2.5171,-2.5199,-2.5241,-2.5279,-2.5317,-2.5371,-2.5417,-2.5454,-2.5501,-2.5525,-2.5531,-2.5536,-2.5534,-2.554,-2.5502,-2.5489,-2.5531,-2.5531,-2.5531,-2.5531,-2.5531,-2.5531,-2.5002,-2.5052,-2.5069,-2.5134,-2.516,-2.5208,-2.523,-2.5262,-2.5292,-2.5351,-2.5389,-2.5412,-2.545,-2.55,-2.5542,-2.5552,-2.5568,-2.5573,-2.5583,-2.5546,-2.5543,-2.5539,-2.5527,-2.5576,-2.5576,-2.5618,-2.5618,-2.5618]},{"header":{"parameterUnit":"m.s-1","parameterCategory":1,"la1":30.2991,"la2":30.254,"lo1":-89.0895,"lo2":-89.0444,"dy":0.0017,"dx":0.0017,"nx":28,"ny":28,"refTime":"2026-01-09T03:00:00:Z","depth":0,"parameterNumber":3,"parameterNumberName":"V-component_of_WINDS"},"data":[0,0,0,0,0,0,0,0,0,0,0,0,0,0,0,0,0,0,0,0,0,0,0,0,0,0,0,0,0,0,0,0,0,0,0,0,0,0,0,0,0,0,0,0,0,0,0,0,0,0,0,0,0,0,0,0,0,0,3.4467,3.4468,0,3.4551,3.4552,3.4553,3.4571,3.457,3.457,3.4569,3.4651,3.4653,3.4656,0,0,0,0,0,0,0,0,0,0,0,0,0,3.432,3.4322,3.4467,3.4468,3.4469,3.4551,3.4552,3.4553,3.4571,3.457,3.4569,3.4569,3.465,3.4653,3.4656,0,0,0,0,0,0,0,0,0,0,0,0,0,3.4391,3.4323,3.4467,3.4488,3.4491,3.455,3.4552,3.4553,3.4571,3.457,3.4569,3.4568,3.4649,3.4653,3.4657,3.47,0,0,3.4669,3.4671,0,0,0,0,0,0,0,0,3.4387,3.4397,3.4484,3.4487,3.449,3.455,3.453,3.4602,3.4571,3.454,3.4569,3.4568,3.4617,3.4624,3.4642,3.4704,3.4707,3.467,3.4672,3.4674,3.4675,0,0,0,0,0,0,0,3.4382,3.4393,3.45,3.4485,3.4489,3.4492,3.4502,3.4544,3.4583,3.4543,3.4545,3.4554,3.4619,3.4638,3.4644,3.4708,3.4669,3.4673,3.4676,3.4677,3.4812,3.4813,0,0,0,0,0,0,3.4374,3.4389,3.4497,3.4502,3.4435,3.4496,3.4506,3.4531,3.4582,3.4589,3.4555,3.4555,3.4631,3.4639,3.4647,3.4702,3.4674,3.4678,3.468,3.4811,3.4812,3.4813,0,0,0,0,0,0,3.4371,3.4384,3.4494,3.4446,3.4461,3.4499,3.4527,3.4533,3.4552,3.4592,3.4598,3.4567,3.4631,3.4641,3.4687,3.4705,3.4679,3.4683,3.4809,3.4811,3.4812,3.4812,0,0,0,0,0,0,3.4367,3.4382,3.44,3.4447,3.4463,3.4534,3.4528,3.4536,3.456,3.456,3.4605,3.4611,3.4631,3.4681,3.4691,3.471,3.4686,3.4808,3.481,3.4812,3.4811,3.4814,3.4816,0,0,0,0,0,3.4361,3.4395,3.4401,3.4413,3.4486,3.4535,3.4544,3.4567,3.4561,3.4579,3.4604,3.461,3.4701,3.4686,3.4697,3.4718,3.4807,3.4809,3.4812,3.4809,3.4813,3.4816,0,0,0,0,0,0,3.4347,3.4401,3.4408,3.4458,3.4492,3.4538,3.4561,3.457,3.4605,3.4604,3.463,3.4639,3.4685,3.4705,3.4687,3.4763,3.4754,3.4759,3.4748,3.4751,3.4754,3.4748,3.469,0,0,0,0,0,3.435,3.4387,3.4432,3.4471,3.4488,3.4522,3.4544,3.4559,3.4594,3.4608,3.4637,3.467,3.4707,3.473,3.4765,3.4813,3.4824,3.4833,3.4836,3.4838,3.4842,3.4871,3.4876,3.4821,3.4821,3.4821,0,0,3.4356,3.439,3.4412,3.447,3.4498,3.4534,3.4533,3.4572,3.4599,3.4613,3.466,3.4682,3.4721,3.4769,3.4791,3.4788,3.486,3.4841,3.4842,3.4846,3.4874,3.4879,3.4883,3.4823,3.4823,3.4822,0,0,3.4387,3.4416,3.4453,3.4482,3.4525,3.4547,3.4556,3.4601,3.4617,3.4665,3.4677,3.4709,3.4771,3.4798,3.4821,3.4863,3.487,3.4874,3.4888,3.4915,3.4919,3.4923,3.494,3.4945,3.4877,3.4877,3.4877,0,3.4389,3.4446,3.4471,3.451,3.4535,3.4552,3.459,3.4615,3.4667,3.4684,3.4679,3.4759,3.4786,3.4841,3.4852,3.4869,3.488,3.4869,3.4917,3.4921,3.4925,3.4941,3.4947,3.4878,3.4878,3.4878,3.4878,0,3.4446,3.4486,3.4511,3.4563,3.4591,3.4629,3.4659,3.4684,3.4697,3.4719,3.4768,3.4801,3.4844,3.4858,3.487,3.4916,3.4913,3.4912,3.4903,3.493,3.4946,3.4952,3.4878,3.4878,3.4878,3.4878,0,0,3.447,3.4537,3.4546,3.4571,3.462,3.465,3.4689,3.4733,3.4755,3.479,3.4824,3.4876,3.4877,3.4902,3.4917,3.4941,3.4974,3.4938,3.4939,3.4945,3.5028,3.5029,3.5036,3.4979,3.498,3.4981,3.5026,0,3.4508,3.458,3.4604,3.4663,3.47,3.4717,3.4751,3.4784,3.4806,3.484,3.4864,3.4902,3.4899,3.4915,3.4939,3.4965,3.4992,3.4962,3.501,3.5012,3.5002,3.5044,3.5045,3.5085,3.5032,3.5033,3.5033,0,3.4561,3.46,3.4663,3.471,3.4726,3.4756,3.48,3.4832,3.487,3.4885,3.4914,3.4928,3.4968,3.4957,3.5014,3.4993,3.5014,3.503,3.5032,3.5038,3.5025,3.5052,3.5099,3.5105,3.5043,3.5042,3.5041,0,3.4574,3.4641,3.4689,3.4709,3.4764,3.4785,3.4809,3.4846,3.4872,3.4909,3.4926,3.4967,3.4989,3.502,3.5044,3.5033,3.5099,3.5089,3.5113,3.5112,3.5127,3.5126,3.5178,3.5138,3.5138,3.5138,3.5138,0,3.4614,3.4653,3.4696,3.4725,3.4769,3.4796,3.4838,3.4862,3.4896,3.493,3.4945,3.4976,3.5006,3.5041,3.506,3.5105,3.5114,3.5127,3.5132,3.5127,3.5125,3.5141,3.514,3.5139,3.5139,3.5139,3.5138,0,3.4637,3.4667,3.472,3.4768,3.4781,3.4811,3.4852,3.4881,3.4904,3.4947,3.4958,3.4994,3.5036,3.5064,3.5116,3.5129,3.5179,3.5182,3.5166,3.5169,3.5191,3.5189,3.5257,3.5268,3.5219,3.5219,3.522,0,3.4661,3.4692,3.4744,3.4769,3.4793,3.4832,3.4859,3.4886,3.4914,3.4961,3.4984,3.5027,3.5064,3.513,3.516,3.5201,3.5206,3.5227,3.5212,3.5206,3.5208,3.5207,3.521,3.5229,3.523,3.523,3.523,0,3.4702,3.4716,3.4755,3.4799,3.4831,3.4867,3.4903,3.4922,3.4956,3.4985,3.5029,3.5058,3.5113,3.5156,3.52,3.5223,3.5233,3.5235,3.5243,3.5238,3.5229,3.5236,3.5174,3.5233,3.5233,3.5233,3.5233,3.5232,3.4727,3.4756,3.4798,3.4841,3.4871,3.4905,3.4935,3.4962,3.5,3.5049,3.5062,3.5109,3.5147,3.5207,3.5231,3.5268,3.5265,3.5276,3.5279,3.5281,3.5283,3.5222,3.5275,3.5275,3.5275,3.5275,3.5275,0,3.477,3.4798,3.4838,3.4889,3.4923,3.493,3.497,3.4998,3.5039,3.5075,3.5111,3.5162,3.5204,3.5238,3.5282,3.5304,3.531,3.5315,3.5314,3.532,3.5282,3.5271,3.531,3.531,3.531,3.531,3.531,3.531,3.4796,3.4846,3.4865,3.4929,3.4957,3.5004,3.5027,3.5058,3.5087,3.5144,3.518,3.5202,3.5237,3.5284,3.5323,3.5332,3.5347,3.5352,3.5362,3.5326,3.5322,3.5318,3.5309,3.5355,3.5355,3.5397,3.5397,3.5397]}]]